Location: Contre
(49.7477°N, 2.0963°E)
Time: 21:29:41
(UTC+00:00)

Meteor 2-12 Rocket - Pass Details

Date: 13 August 2024
Orbit: 936 x 957 km, 82.5° (Epoch: 07 September)

Event Time Altitude Azimuth Distance (km) Brightness Sun altitude
Rises 01:24:12 0° 343° (NNW) 3,614 8.2 -22.9°
Reaches altitude 10° 01:26:56 10° 334° (NNW) 2,668 7.3 -22.7°
Maximum altitude 01:32:13 32° 273° (W) 1,564 5.4 -22.3°
Enters shadow 01:33:15 30° 254° (WSW) 1,622 5.3 -22.3°
